Powrót do katalogu

STARLINK-38176

AktywnyŁącznośćSSO
NORAD 100189·PAYLOAD·🇺🇸 United States

Wystrzelony Aug 1, 2026 z Vandenberg Space Force Base

Loading…

Następne Przeloty (najbliższe 24 godziny)

TLE

ŚwieżeSource: Space-Track

Epoka: Sep 14, 2026, 12:48 UTC

1 A0189U 26175L   26257.53337279  .00233339  00000-0  15178-2 0  9997
2 A0189  97.2837  99.6234 0001174  99.5437 260.5961 15.75268365  8239

Śledź STARLINK-38176 w czasie rzeczywistym z AllMySat

Download on the App Store